Year,Month,Day,Hour,Minute,Value (Times are PST for temperature in C)
2014,05,02,00,00,16.60
2014,05,02,00,01,16.60
2014,05,02,00,02,16.60
2014,05,02,00,03,16.40
2014,05,02,00,04,16.40
2014,05,02,00,05,16.40
2014,05,02,00,06,16.40
2014,05,02,00,07,16.40
2014,05,02,00,08,16.40
2014,05,02,00,09,16.40
2014,05,02,00,10,16.40
2014,05,02,00,11,16.40
2014,05,02,00,12,16.40
2014,05,02,00,13,16.40
2014,05,02,00,14,16.40
2014,05,02,00,15,16.30
2014,05,02,00,16,16.30
2014,05,02,00,17,16.30
2014,05,02,00,18,16.30
2014,05,02,00,19,16.20
2014,05,02,00,20,16.20
2014,05,02,00,21,16.20
2014,05,02,00,22,16.20
2014,05,02,00,23,16.20
2014,05,02,00,24,16.20
2014,05,02,00,25,16.20
2014,05,02,00,26,16.10
2014,05,02,00,27,16.10
2014,05,02,00,28,16.10
2014,05,02,00,29,16.10
2014,05,02,00,30,16.10
2014,05,02,00,31,16.10
2014,05,02,00,32,15.90
2014,05,02,00,33,15.90
2014,05,02,00,34,15.90
2014,05,02,00,35,15.90
2014,05,02,00,36,15.90
2014,05,02,00,37,16.10
2014,05,02,00,38,16.10
2014,05,02,00,39,16.10
2014,05,02,00,40,16.10
2014,05,02,00,41,16.10
2014,05,02,00,42,16.10
2014,05,02,00,43,16.10
2014,05,02,00,44,16.10
2014,05,02,00,45,16.10
2014,05,02,00,46,16.10
2014,05,02,00,47,16.10
2014,05,02,00,48,16.10
2014,05,02,00,49,15.90
2014,05,02,00,50,15.90
2014,05,02,00,51,15.90
2014,05,02,00,52,15.80
2014,05,02,00,53,15.80
2014,05,02,00,54,15.90
2014,05,02,00,55,15.90
2014,05,02,00,56,16.10
2014,05,02,00,57,16.10
2014,05,02,00,58,16.10
2014,05,02,00,59,16.10
2014,05,02,01,00,16.10
2014,05,02,01,01,16.10
2014,05,02,01,02,16.10
2014,05,02,01,03,15.90
2014,05,02,01,04,15.90
2014,05,02,01,05,15.90
2014,05,02,01,06,15.80
2014,05,02,01,07,15.80
2014,05,02,01,08,15.80
2014,05,02,01,09,15.80
2014,05,02,01,10,15.80
2014,05,02,01,11,15.70
2014,05,02,01,12,15.60
2014,05,02,01,13,15.60
2014,05,02,01,14,15.60
2014,05,02,01,15,15.60
2014,05,02,01,16,15.60
2014,05,02,01,17,15.60
2014,05,02,01,18,15.60
2014,05,02,01,19,15.50
2014,05,02,01,20,15.50
2014,05,02,01,21,15.50
2014,05,02,01,22,15.50
2014,05,02,01,23,15.50
2014,05,02,01,24,15.60
2014,05,02,01,25,15.60
2014,05,02,01,26,15.60
2014,05,02,01,27,15.60
2014,05,02,01,28,15.60
2014,05,02,01,29,15.60
2014,05,02,01,30,15.60
2014,05,02,01,31,15.60
2014,05,02,01,32,15.60
2014,05,02,01,33,15.60
2014,05,02,01,34,15.60
2014,05,02,01,35,15.60
2014,05,02,01,36,15.60
2014,05,02,01,37,15.60
2014,05,02,01,38,15.60
2014,05,02,01,39,15.60
2014,05,02,01,40,15.60
2014,05,02,01,41,15.60
2014,05,02,01,42,15.60
2014,05,02,01,43,15.50
2014,05,02,01,44,15.50
2014,05,02,01,45,15.50
2014,05,02,01,46,15.50
2014,05,02,01,47,15.50
2014,05,02,01,48,15.40
2014,05,02,01,49,15.40
2014,05,02,01,50,15.40
2014,05,02,01,51,15.40
2014,05,02,01,52,15.30
2014,05,02,01,53,15.30
2014,05,02,01,54,15.30
2014,05,02,01,55,15.40
2014,05,02,01,56,15.40
2014,05,02,01,57,15.50
2014,05,02,01,58,15.50
2014,05,02,01,59,15.40
2014,05,02,02,00,15.40
2014,05,02,02,01,15.30
2014,05,02,02,02,15.30
2014,05,02,02,03,15.30
2014,05,02,02,04,15.30
2014,05,02,02,05,15.20
2014,05,02,02,06,15.00
2014,05,02,02,07,14.80
2014,05,02,02,08,14.70
2014,05,02,02,09,14.50
2014,05,02,02,10,14.40
2014,05,02,02,11,14.20
2014,05,02,02,12,14.20
2014,05,02,02,13,14.20
2014,05,02,02,14,14.20
2014,05,02,02,15,14.20
2014,05,02,02,16,14.20
2014,05,02,02,17,14.20
2014,05,02,02,18,14.20
2014,05,02,02,19,14.20
2014,05,02,02,20,14.30
2014,05,02,02,21,14.40
2014,05,02,02,22,14.50
2014,05,02,02,23,14.60
2014,05,02,02,24,14.70
2014,05,02,02,25,14.70
2014,05,02,02,26,14.70
2014,05,02,02,27,14.70
2014,05,02,02,28,14.70
2014,05,02,02,29,14.70
2014,05,02,02,30,14.60
2014,05,02,02,31,14.50
2014,05,02,02,32,14.50
2014,05,02,02,33,14.60
2014,05,02,02,34,14.70
2014,05,02,02,35,14.80
2014,05,02,02,36,14.80
2014,05,02,02,37,14.90
2014,05,02,02,38,15.00
2014,05,02,02,39,15.10
2014,05,02,02,40,15.20
2014,05,02,02,41,15.30
2014,05,02,02,42,15.30
2014,05,02,02,43,15.20
2014,05,02,02,44,15.20
2014,05,02,02,45,15.20
2014,05,02,02,46,15.10
2014,05,02,02,47,14.90
2014,05,02,02,48,14.80
2014,05,02,02,49,14.80
2014,05,02,02,50,14.80
2014,05,02,02,51,14.70
2014,05,02,02,52,14.60
2014,05,02,02,53,14.60
2014,05,02,02,54,14.60
2014,05,02,02,55,14.60
2014,05,02,02,56,14.50
2014,05,02,02,57,14.50
2014,05,02,02,58,14.50
2014,05,02,02,59,14.50
2014,05,02,03,00,14.50
2014,05,02,03,01,14.40
2014,05,02,03,02,14.40
2014,05,02,03,03,14.40
2014,05,02,03,04,14.40
2014,05,02,03,05,14.40
2014,05,02,03,06,14.40
2014,05,02,03,07,14.40
2014,05,02,03,08,14.30
2014,05,02,03,09,14.30
2014,05,02,03,10,14.20
2014,05,02,03,11,14.20
2014,05,02,03,12,14.20
2014,05,02,03,13,14.20
2014,05,02,03,14,14.10
2014,05,02,03,15,14.00
2014,05,02,03,16,14.00
2014,05,02,03,17,13.90
2014,05,02,03,18,13.90
2014,05,02,03,19,13.90
2014,05,02,03,20,13.90
2014,05,02,03,21,13.80
2014,05,02,03,22,13.90
2014,05,02,03,23,13.90
2014,05,02,03,24,13.90
2014,05,02,03,25,13.90
2014,05,02,03,26,13.90
2014,05,02,03,27,13.90
2014,05,02,03,28,13.90
2014,05,02,03,29,13.80
2014,05,02,03,30,13.70
2014,05,02,03,31,13.70
2014,05,02,03,32,13.70
2014,05,02,03,33,13.60
2014,05,02,03,34,13.60
2014,05,02,03,35,13.50
2014,05,02,03,36,13.40
2014,05,02,03,37,13.30
2014,05,02,03,38,13.20
2014,05,02,03,39,13.10
2014,05,02,03,40,13.00
2014,05,02,03,41,12.90
2014,05,02,03,42,12.90
2014,05,02,03,43,12.90
2014,05,02,03,44,12.80
2014,05,02,03,45,12.80
2014,05,02,03,46,12.80
2014,05,02,03,47,12.80
2014,05,02,03,48,12.70
2014,05,02,03,49,12.70
2014,05,02,03,50,12.60
2014,05,02,03,51,12.50
2014,05,02,03,52,12.40
2014,05,02,03,53,12.40
2014,05,02,03,54,12.30
2014,05,02,03,55,12.30
2014,05,02,03,56,12.30
2014,05,02,03,57,12.30
2014,05,02,03,58,12.20
2014,05,02,03,59,12.20
2014,05,02,04,00,12.20
2014,05,02,04,01,12.10
2014,05,02,04,02,12.10
2014,05,02,04,03,12.00
2014,05,02,04,04,12.00
2014,05,02,04,05,12.00
2014,05,02,04,06,11.90
2014,05,02,04,07,11.90
2014,05,02,04,08,11.90
2014,05,02,04,09,11.80
2014,05,02,04,10,11.80
2014,05,02,04,11,11.80
2014,05,02,04,12,11.80
2014,05,02,04,13,11.70
2014,05,02,04,14,11.70
2014,05,02,04,15,11.60
2014,05,02,04,16,11.60
2014,05,02,04,17,11.60
2014,05,02,04,18,11.60
2014,05,02,04,19,11.40
2014,05,02,04,20,11.40
2014,05,02,04,21,11.40
2014,05,02,04,22,11.40
2014,05,02,04,23,11.40
2014,05,02,04,24,11.30
2014,05,02,04,25,11.30
2014,05,02,04,26,11.30
2014,05,02,04,27,11.20
2014,05,02,04,28,11.20
2014,05,02,04,29,11.20
2014,05,02,04,30,11.20
2014,05,02,04,31,11.20
2014,05,02,04,32,11.10
2014,05,02,04,33,11.10
2014,05,02,04,34,11.10
2014,05,02,04,35,11.10
2014,05,02,04,36,11.10
2014,05,02,04,37,11.10
2014,05,02,04,38,11.10
2014,05,02,04,39,11.10
2014,05,02,04,40,11.10
2014,05,02,04,41,11.10
2014,05,02,04,42,11.10
2014,05,02,04,43,11.10
2014,05,02,04,44,10.90
2014,05,02,04,45,10.90
2014,05,02,04,46,10.90
2014,05,02,04,47,10.90
2014,05,02,04,48,10.90
2014,05,02,04,49,10.90
2014,05,02,04,50,10.80
2014,05,02,04,51,10.80
2014,05,02,04,52,10.80
2014,05,02,04,53,10.80
2014,05,02,04,54,10.70
2014,05,02,04,55,10.70
2014,05,02,04,56,10.70
2014,05,02,04,57,10.70
2014,05,02,04,58,10.70
2014,05,02,04,59,10.70
2014,05,02,05,00,10.70
2014,05,02,05,01,10.70
2014,05,02,05,02,10.70
2014,05,02,05,03,10.70
2014,05,02,05,04,10.60
2014,05,02,05,05,10.60
2014,05,02,05,06,10.60
2014,05,02,05,07,10.60
2014,05,02,05,08,10.70
2014,05,02,05,09,10.70
2014,05,02,05,10,10.70
2014,05,02,05,11,10.80
2014,05,02,05,12,10.80
2014,05,02,05,13,10.80
2014,05,02,05,14,10.80
2014,05,02,05,15,10.80
2014,05,02,05,16,10.80
2014,05,02,05,17,10.80
2014,05,02,05,18,10.80
2014,05,02,05,19,10.80
2014,05,02,05,20,10.80
2014,05,02,05,21,10.80
2014,05,02,05,22,10.80
2014,05,02,05,23,10.80
2014,05,02,05,24,10.80
2014,05,02,05,25,10.80
2014,05,02,05,26,10.80
2014,05,02,05,27,10.80
2014,05,02,05,28,10.90
2014,05,02,05,29,10.90
2014,05,02,05,30,10.90
2014,05,02,05,31,11.10
2014,05,02,05,32,11.10
2014,05,02,05,33,11.20
2014,05,02,05,34,11.30
2014,05,02,05,35,11.40
2014,05,02,05,36,11.40
2014,05,02,05,37,11.40
2014,05,02,05,38,11.60
2014,05,02,05,39,11.60
2014,05,02,05,40,11.60
2014,05,02,05,41,11.60
2014,05,02,05,42,11.60
2014,05,02,05,43,11.60
2014,05,02,05,44,11.40
2014,05,02,05,45,11.40
2014,05,02,05,46,11.40
2014,05,02,05,47,11.30
2014,05,02,05,48,11.20
2014,05,02,05,49,11.20
2014,05,02,05,50,11.20
2014,05,02,05,51,11.20
2014,05,02,05,52,11.30
2014,05,02,05,53,11.40
2014,05,02,05,54,11.60
2014,05,02,05,55,11.70
2014,05,02,05,56,11.80
2014,05,02,05,57,11.90
2014,05,02,05,58,12.00
2014,05,02,05,59,12.30
2014,05,02,06,00,12.40
2014,05,02,06,01,12.60
2014,05,02,06,02,12.70
2014,05,02,06,03,12.60
2014,05,02,06,04,12.60
2014,05,02,06,05,12.40
2014,05,02,06,06,12.30
2014,05,02,06,07,12.20
2014,05,02,06,08,12.20
2014,05,02,06,09,12.80
2014,05,02,06,10,13.20
2014,05,02,06,11,13.50
2014,05,02,06,12,13.70
2014,05,02,06,13,13.70
2014,05,02,06,14,13.80
2014,05,02,06,15,13.80
2014,05,02,06,16,13.90
2014,05,02,06,17,14.00
2014,05,02,06,18,14.10
2014,05,02,06,19,14.20
2014,05,02,06,20,14.20
2014,05,02,06,21,14.20
2014,05,02,06,22,14.20
2014,05,02,06,23,14.20
2014,05,02,06,24,14.10
2014,05,02,06,25,14.10
2014,05,02,06,26,14.00
2014,05,02,06,27,14.00
2014,05,02,06,28,14.00
2014,05,02,06,29,13.90
2014,05,02,06,30,13.90
2014,05,02,06,31,13.90
2014,05,02,06,32,13.90
2014,05,02,06,33,13.90
2014,05,02,06,34,14.00
2014,05,02,06,35,14.00
2014,05,02,06,36,14.00
2014,05,02,06,37,14.10
2014,05,02,06,38,14.10
2014,05,02,06,39,14.10
2014,05,02,06,40,14.10
2014,05,02,06,41,14.10
2014,05,02,06,42,14.10
2014,05,02,06,43,14.10
2014,05,02,06,44,14.10
2014,05,02,06,45,14.20
2014,05,02,06,46,14.20
2014,05,02,06,47,14.10
2014,05,02,06,48,14.10
2014,05,02,06,49,14.10
2014,05,02,06,50,14.10
2014,05,02,06,51,14.20
2014,05,02,06,52,14.20
2014,05,02,06,53,14.20
2014,05,02,06,54,14.20
2014,05,02,06,55,14.20
2014,05,02,06,56,14.20
2014,05,02,06,57,14.20
2014,05,02,06,58,14.20
2014,05,02,06,59,14.20
2014,05,02,07,00,14.20
2014,05,02,07,01,14.20
2014,05,02,07,02,14.20
2014,05,02,07,03,14.20
2014,05,02,07,04,14.20
2014,05,02,07,05,14.20
2014,05,02,07,06,14.20
2014,05,02,07,07,14.20
2014,05,02,07,08,14.20
2014,05,02,07,09,14.20
2014,05,02,07,10,14.20
2014,05,02,07,11,14.20
2014,05,02,07,12,14.20
2014,05,02,07,13,14.20
2014,05,02,07,14,14.20
2014,05,02,07,15,14.20
2014,05,02,07,16,14.20
2014,05,02,07,17,14.20
2014,05,02,07,18,14.20
2014,05,02,07,19,14.20
2014,05,02,07,20,14.20
2014,05,02,07,21,14.20
2014,05,02,07,22,14.20
2014,05,02,07,23,14.20
2014,05,02,07,24,14.20
2014,05,02,07,25,14.20
2014,05,02,07,26,14.20
2014,05,02,07,27,14.20
2014,05,02,07,28,14.20
2014,05,02,07,29,14.20
2014,05,02,07,30,14.20
2014,05,02,07,31,14.20
2014,05,02,07,32,14.20
2014,05,02,07,33,14.20
2014,05,02,07,34,14.20
2014,05,02,07,35,14.20
2014,05,02,07,36,14.20
2014,05,02,07,37,14.20
2014,05,02,07,38,14.20
2014,05,02,07,39,14.20
2014,05,02,07,40,14.20
2014,05,02,07,41,14.20
2014,05,02,07,42,14.20
2014,05,02,07,43,14.20
2014,05,02,07,44,14.20
2014,05,02,07,45,14.20
2014,05,02,07,46,14.20
2014,05,02,07,47,14.20
2014,05,02,07,48,14.20
2014,05,02,07,49,14.20
2014,05,02,07,50,14.20
2014,05,02,07,51,14.20
2014,05,02,07,52,14.20
2014,05,02,07,53,14.20
2014,05,02,07,54,14.20
2014,05,02,07,55,14.20
2014,05,02,07,56,14.20
2014,05,02,07,57,14.20
2014,05,02,07,58,14.20
2014,05,02,07,59,14.20
2014,05,02,08,00,14.20
2014,05,02,08,01,14.20
2014,05,02,08,02,14.20
2014,05,02,08,03,14.20
2014,05,02,08,04,14.20
2014,05,02,08,05,14.30
2014,05,02,08,06,14.30
2014,05,02,08,07,14.30
2014,05,02,08,08,14.20
2014,05,02,08,09,14.20
2014,05,02,08,10,14.20
2014,05,02,08,11,14.20
2014,05,02,08,12,14.20
2014,05,02,08,13,14.20
2014,05,02,08,14,14.20
2014,05,02,08,15,14.20
2014,05,02,08,16,14.20
2014,05,02,08,17,14.20
2014,05,02,08,18,14.10
2014,05,02,08,19,14.10
2014,05,02,08,20,14.10
2014,05,02,08,21,14.10
2014,05,02,08,22,14.10
2014,05,02,08,23,14.10
2014,05,02,08,24,14.10
2014,05,02,08,25,14.10
2014,05,02,08,26,14.10
2014,05,02,08,27,14.10
2014,05,02,08,28,14.10
2014,05,02,08,29,14.10
2014,05,02,08,30,14.10
2014,05,02,08,31,14.10
2014,05,02,08,32,14.10
2014,05,02,08,33,14.10
2014,05,02,08,34,14.10
2014,05,02,08,35,14.10
2014,05,02,08,36,14.10
2014,05,02,08,37,14.10
2014,05,02,08,38,14.10
2014,05,02,08,39,14.10
2014,05,02,08,40,14.10
2014,05,02,08,41,14.10
2014,05,02,08,42,14.10
2014,05,02,08,43,14.10
2014,05,02,08,44,14.10
2014,05,02,08,45,14.10
2014,05,02,08,46,14.00
2014,05,02,08,47,14.00
2014,05,02,08,48,14.00
2014,05,02,08,49,14.00
2014,05,02,08,50,14.00
2014,05,02,08,51,14.00
2014,05,02,08,52,14.00
2014,05,02,08,53,14.00
2014,05,02,08,54,14.10
2014,05,02,08,55,14.10
2014,05,02,08,56,14.10
2014,05,02,08,57,14.10
2014,05,02,08,58,14.10
2014,05,02,08,59,14.00
2014,05,02,09,00,14.00
2014,05,02,09,01,14.00
2014,05,02,09,02,14.00
2014,05,02,09,03,14.10
2014,05,02,09,04,14.10
2014,05,02,09,05,14.10
2014,05,02,09,06,14.10
2014,05,02,09,07,14.10
2014,05,02,09,08,14.10
2014,05,02,09,09,14.20
2014,05,02,09,10,14.10
2014,05,02,09,11,14.20
2014,05,02,09,12,14.20
2014,05,02,09,13,14.20
2014,05,02,09,14,14.20
2014,05,02,09,15,14.20
2014,05,02,09,16,14.20
2014,05,02,09,17,14.20
2014,05,02,09,18,14.20
2014,05,02,09,19,14.20
2014,05,02,09,20,14.20
2014,05,02,09,21,14.20
2014,05,02,09,22,14.20
2014,05,02,09,23,14.30
2014,05,02,09,24,14.30
2014,05,02,09,25,14.30
2014,05,02,09,26,14.30
2014,05,02,09,27,14.20
2014,05,02,09,28,14.20
2014,05,02,09,29,14.20
2014,05,02,09,30,14.20
2014,05,02,09,31,14.20
2014,05,02,09,32,14.20
2014,05,02,09,33,14.20
2014,05,02,09,34,14.20
2014,05,02,09,35,14.20
2014,05,02,09,36,14.20
2014,05,02,09,37,14.20
2014,05,02,09,38,14.20
2014,05,02,09,39,14.10
2014,05,02,09,40,14.20
2014,05,02,09,41,14.10
2014,05,02,09,42,14.10
2014,05,02,09,43,14.10
2014,05,02,09,44,14.10
2014,05,02,09,45,14.10
2014,05,02,09,46,14.20
2014,05,02,09,47,14.20
2014,05,02,09,48,14.20
2014,05,02,09,49,14.20
2014,05,02,09,50,14.20
2014,05,02,09,51,14.20
2014,05,02,09,52,14.20
2014,05,02,09,53,14.20
2014,05,02,09,54,14.20
2014,05,02,09,55,14.20
2014,05,02,09,56,14.30
2014,05,02,09,57,14.30
2014,05,02,09,58,14.30
2014,05,02,09,59,14.30
2014,05,02,10,00,14.30
2014,05,02,10,01,14.20
2014,05,02,10,02,14.20
2014,05,02,10,03,14.20
2014,05,02,10,04,14.30
2014,05,02,10,05,14.30
2014,05,02,10,06,14.30
2014,05,02,10,07,14.30
2014,05,02,10,08,14.30
2014,05,02,10,09,14.40
2014,05,02,10,10,14.40
2014,05,02,10,11,14.40
2014,05,02,10,12,14.40
2014,05,02,10,13,14.50
2014,05,02,10,14,14.40
2014,05,02,10,15,14.50
2014,05,02,10,16,14.50
2014,05,02,10,17,14.50
2014,05,02,10,18,14.50
2014,05,02,10,19,14.50
2014,05,02,10,20,14.50
2014,05,02,10,21,14.50
2014,05,02,10,22,14.50
2014,05,02,10,23,14.60
2014,05,02,10,24,14.60
2014,05,02,10,25,14.60
2014,05,02,10,26,14.70
2014,05,02,10,27,14.70
2014,05,02,10,28,14.70
2014,05,02,10,29,14.80
2014,05,02,10,30,14.80
2014,05,02,10,31,14.70
2014,05,02,10,32,14.70
2014,05,02,10,33,14.70
2014,05,02,10,34,14.70
2014,05,02,10,35,14.70
2014,05,02,10,36,14.70
2014,05,02,10,37,14.80
2014,05,02,10,38,14.80
2014,05,02,10,39,14.80
2014,05,02,10,40,14.90
2014,05,02,10,41,14.90
2014,05,02,10,42,15.00
2014,05,02,10,43,15.00
2014,05,02,10,44,15.10
2014,05,02,10,45,15.10
2014,05,02,10,46,15.10
2014,05,02,10,47,15.10
2014,05,02,10,48,15.10
2014,05,02,10,49,15.20
2014,05,02,10,50,15.20
2014,05,02,10,51,15.30
2014,05,02,10,52,15.30
2014,05,02,10,53,15.30
2014,05,02,10,54,15.30
2014,05,02,10,55,15.40
2014,05,02,10,56,15.50
2014,05,02,10,57,15.50
2014,05,02,10,58,15.60
2014,05,02,10,59,15.60
2014,05,02,11,00,15.60
2014,05,02,11,01,15.70
2014,05,02,11,02,15.70
2014,05,02,11,03,15.70
2014,05,02,11,04,15.60
2014,05,02,11,05,15.60
2014,05,02,11,06,15.60
2014,05,02,11,07,15.50
2014,05,02,11,08,15.40
2014,05,02,11,09,15.40
2014,05,02,11,10,15.40
2014,05,02,11,11,15.50
2014,05,02,11,12,15.40
2014,05,02,11,13,15.30
2014,05,02,11,14,15.30
2014,05,02,11,15,15.30
2014,05,02,11,16,15.30
2014,05,02,11,17,15.20
2014,05,02,11,18,15.10
2014,05,02,11,19,15.00
2014,05,02,11,20,14.90
2014,05,02,11,21,14.90
2014,05,02,11,22,14.90
2014,05,02,11,23,14.90
2014,05,02,11,24,14.90
2014,05,02,11,25,14.90
2014,05,02,11,26,14.90
2014,05,02,11,27,14.90
2014,05,02,11,28,14.90
2014,05,02,11,29,14.90
2014,05,02,11,30,15.00
2014,05,02,11,31,15.00
2014,05,02,11,32,15.00
2014,05,02,11,33,15.00
2014,05,02,11,34,15.00
2014,05,02,11,35,14.90
2014,05,02,11,36,14.90
2014,05,02,11,37,14.80
2014,05,02,11,38,14.80
2014,05,02,11,39,14.80
2014,05,02,11,40,14.80
2014,05,02,11,41,14.80
2014,05,02,11,42,14.80
2014,05,02,11,43,14.80
2014,05,02,11,44,14.80
2014,05,02,11,45,14.80
2014,05,02,11,46,14.80
2014,05,02,11,47,14.80
2014,05,02,11,48,14.80
2014,05,02,11,49,14.80
2014,05,02,11,50,14.90
2014,05,02,11,51,14.90
2014,05,02,11,52,14.90
2014,05,02,11,53,15.00
2014,05,02,11,54,15.10
2014,05,02,11,55,15.10
2014,05,02,11,56,15.10
2014,05,02,11,57,15.20
2014,05,02,11,58,15.20
2014,05,02,11,59,15.30
2014,05,02,12,00,15.30
2014,05,02,12,01,15.30
2014,05,02,12,02,15.30
2014,05,02,12,03,15.30
2014,05,02,12,04,15.30
2014,05,02,12,05,15.30
2014,05,02,12,06,15.30
2014,05,02,12,07,15.30
2014,05,02,12,08,15.30
2014,05,02,12,09,15.30
2014,05,02,12,10,15.40
2014,05,02,12,11,15.50
2014,05,02,12,12,15.60
2014,05,02,12,13,15.60
2014,05,02,12,14,15.70
2014,05,02,12,15,15.70
2014,05,02,12,16,15.70
2014,05,02,12,17,15.60
2014,05,02,12,18,15.60
2014,05,02,12,19,15.60
2014,05,02,12,20,15.60
2014,05,02,12,21,15.70
2014,05,02,12,22,15.80
2014,05,02,12,23,15.80
2014,05,02,12,24,15.80
2014,05,02,12,25,15.90
2014,05,02,12,26,15.90
2014,05,02,12,27,15.90
2014,05,02,12,28,15.90
2014,05,02,12,29,16.10
2014,05,02,12,30,16.10
2014,05,02,12,31,16.10
2014,05,02,12,32,16.20
2014,05,02,12,33,16.30
2014,05,02,12,34,16.20
2014,05,02,12,35,16.20
2014,05,02,12,36,16.20
2014,05,02,12,37,16.10
2014,05,02,12,38,16.10
2014,05,02,12,39,16.10
2014,05,02,12,40,16.10
2014,05,02,12,41,16.10
2014,05,02,12,42,15.90
2014,05,02,12,43,15.90
2014,05,02,12,44,15.80
2014,05,02,12,45,15.80
2014,05,02,12,46,15.80
2014,05,02,12,47,15.90
2014,05,02,12,48,15.90
2014,05,02,12,49,15.90
2014,05,02,12,50,16.10
2014,05,02,12,51,16.10
2014,05,02,12,52,16.10
2014,05,02,12,53,16.10
2014,05,02,12,54,16.10
2014,05,02,12,55,16.10
2014,05,02,12,56,16.10
2014,05,02,12,57,16.10
2014,05,02,12,58,16.10
2014,05,02,12,59,16.10
2014,05,02,13,00,16.10
2014,05,02,13,01,15.90
2014,05,02,13,02,15.90
2014,05,02,13,03,15.90
2014,05,02,13,04,15.90
2014,05,02,13,05,15.90
2014,05,02,13,06,15.90
2014,05,02,13,07,15.90
2014,05,02,13,08,16.10
2014,05,02,13,09,16.10
2014,05,02,13,10,16.10
2014,05,02,13,11,16.10
2014,05,02,13,12,16.20
2014,05,02,13,13,16.20
2014,05,02,13,14,16.20
2014,05,02,13,15,16.20
2014,05,02,13,16,16.30
2014,05,02,13,17,16.30
2014,05,02,13,18,16.40
2014,05,02,13,19,16.40
2014,05,02,13,20,16.40
2014,05,02,13,21,16.40
2014,05,02,13,22,16.40
2014,05,02,13,23,16.40
2014,05,02,13,24,16.40
2014,05,02,13,25,16.20
2014,05,02,13,26,16.20
2014,05,02,13,27,16.10
2014,05,02,13,28,16.10
2014,05,02,13,29,16.10
2014,05,02,13,30,16.10
2014,05,02,13,31,16.10
2014,05,02,13,32,15.90
2014,05,02,13,33,15.90
2014,05,02,13,34,15.90
2014,05,02,13,35,15.90
2014,05,02,13,36,15.90
2014,05,02,13,37,15.90
2014,05,02,13,38,15.90
2014,05,02,13,39,16.10
2014,05,02,13,40,16.10
2014,05,02,13,41,16.10
2014,05,02,13,42,16.10
2014,05,02,13,43,16.10
2014,05,02,13,44,16.10
2014,05,02,13,45,16.10
2014,05,02,13,46,16.10
2014,05,02,13,47,16.10
2014,05,02,13,48,16.10
2014,05,02,13,49,16.10
2014,05,02,13,50,16.10
2014,05,02,13,51,16.10
2014,05,02,13,52,16.10
2014,05,02,13,53,16.20
2014,05,02,13,54,16.20
2014,05,02,13,55,16.30
2014,05,02,13,56,16.30
2014,05,02,13,57,16.20
2014,05,02,13,58,16.20
2014,05,02,13,59,16.20
2014,05,02,14,00,16.20
2014,05,02,14,01,16.20
2014,05,02,14,02,16.20
2014,05,02,14,03,16.10
2014,05,02,14,04,16.10
2014,05,02,14,05,16.10
2014,05,02,14,06,16.10
2014,05,02,14,07,16.10
2014,05,02,14,08,16.10
2014,05,02,14,09,16.10
2014,05,02,14,10,16.10
2014,05,02,14,11,16.10
2014,05,02,14,12,16.10
2014,05,02,14,13,16.10
2014,05,02,14,14,16.10
2014,05,02,14,15,16.10
2014,05,02,14,16,16.10
2014,05,02,14,17,16.10
2014,05,02,14,18,16.10
2014,05,02,14,19,16.10
2014,05,02,14,21,15.80
2014,05,02,14,22,15.90
2014,05,02,14,23,15.90
2014,05,02,14,24,16.10
2014,05,02,14,25,16.10
2014,05,02,14,26,16.10
2014,05,02,14,27,16.20
2014,05,02,14,28,16.20
2014,05,02,14,29,16.20
2014,05,02,14,30,16.30
2014,05,02,14,31,16.30
2014,05,02,14,32,16.40
2014,05,02,14,33,16.30
2014,05,02,14,34,16.30
2014,05,02,14,35,16.30
2014,05,02,14,36,16.30
2014,05,02,14,37,16.20
2014,05,02,14,38,16.20
2014,05,02,14,39,16.30
2014,05,02,14,40,16.30
2014,05,02,14,41,16.30
2014,05,02,14,42,16.20
2014,05,02,14,43,16.30
2014,05,02,14,44,16.30
2014,05,02,14,45,16.30
2014,05,02,14,46,16.30
2014,05,02,14,47,16.30
2014,05,02,14,48,16.30
2014,05,02,14,49,16.40
2014,05,02,14,50,16.40
2014,05,02,14,51,16.40
2014,05,02,14,52,16.60
2014,05,02,14,53,16.70
2014,05,02,14,54,16.70
2014,05,02,14,55,16.90
2014,05,02,14,56,17.00
2014,05,02,14,57,17.10
2014,05,02,14,58,17.10
2014,05,02,14,59,17.10
2014,05,02,15,00,17.20
2014,05,02,15,01,17.20
2014,05,02,15,02,17.30
2014,05,02,15,03,17.30
2014,05,02,15,04,17.30
2014,05,02,15,05,17.30
2014,05,02,15,06,17.30
2014,05,02,15,07,17.30
2014,05,02,15,08,17.30
2014,05,02,15,09,17.30
2014,05,02,15,10,17.30
2014,05,02,15,11,17.30
2014,05,02,15,12,17.30
2014,05,02,15,13,17.40
2014,05,02,15,14,17.40
2014,05,02,15,15,17.50
2014,05,02,15,16,17.50
2014,05,02,15,17,17.60
2014,05,02,15,18,17.60
2014,05,02,15,19,17.60
2014,05,02,15,20,17.50
2014,05,02,15,21,17.40
2014,05,02,15,22,17.30
2014,05,02,15,23,17.30
2014,05,02,15,24,17.20
2014,05,02,15,25,17.00
2014,05,02,15,26,16.90
2014,05,02,15,27,16.70
2014,05,02,15,28,16.70
2014,05,02,15,29,16.60
2014,05,02,15,30,16.60
2014,05,02,15,31,16.60
2014,05,02,15,32,16.60
2014,05,02,15,33,16.60
2014,05,02,15,34,16.60
2014,05,02,15,35,16.60
2014,05,02,15,36,16.60
2014,05,02,15,37,16.60
2014,05,02,15,38,16.70
2014,05,02,15,39,16.70
2014,05,02,15,40,16.70
2014,05,02,15,41,16.70
2014,05,02,15,42,16.70
2014,05,02,15,43,16.70
2014,05,02,15,44,16.70
2014,05,02,15,45,16.70
2014,05,02,15,46,16.70
2014,05,02,15,47,16.80
2014,05,02,15,48,16.90
2014,05,02,15,49,16.80
2014,05,02,15,50,16.80
2014,05,02,15,51,16.80
2014,05,02,15,52,16.80
2014,05,02,15,53,16.90
2014,05,02,15,54,16.90
2014,05,02,15,55,16.90
2014,05,02,15,56,16.80
2014,05,02,15,57,16.70
2014,05,02,15,58,16.70
2014,05,02,15,59,16.60
2014,05,02,16,00,16.40
2014,05,02,16,01,16.40
2014,05,02,16,02,16.40
2014,05,02,16,03,16.40
2014,05,02,16,04,16.40
2014,05,02,16,05,16.40
2014,05,02,16,06,16.60
2014,05,02,16,07,16.60
2014,05,02,16,08,16.70
2014,05,02,16,09,16.70
2014,05,02,16,10,16.70
2014,05,02,16,11,16.70
2014,05,02,16,12,16.70
2014,05,02,16,13,16.70
2014,05,02,16,14,16.60
2014,05,02,16,15,16.60
2014,05,02,16,16,16.60
2014,05,02,16,17,16.40
2014,05,02,16,18,16.40
2014,05,02,16,19,16.40
2014,05,02,16,20,16.40
2014,05,02,16,21,16.40
2014,05,02,16,22,16.40
2014,05,02,16,23,16.70
2014,05,02,16,24,16.70
2014,05,02,16,25,16.80
2014,05,02,16,26,16.80
2014,05,02,16,27,16.70
2014,05,02,16,28,16.70
2014,05,02,16,29,16.60
2014,05,02,16,30,16.60
2014,05,02,16,31,16.40
2014,05,02,16,32,16.40
2014,05,02,16,33,16.40
2014,05,02,16,34,16.40
2014,05,02,16,35,16.30
2014,05,02,16,36,16.30
2014,05,02,16,37,16.20
2014,05,02,16,38,16.10
2014,05,02,16,39,16.10
2014,05,02,16,40,16.10
2014,05,02,16,41,15.90
2014,05,02,16,42,15.90
2014,05,02,16,43,15.90
2014,05,02,16,44,15.90
2014,05,02,16,45,15.90
2014,05,02,16,46,16.10
2014,05,02,16,47,16.10
2014,05,02,16,48,16.10
2014,05,02,16,49,16.10
2014,05,02,16,50,16.20
2014,05,02,16,51,16.20
2014,05,02,16,52,16.30
2014,05,02,16,53,16.40
2014,05,02,16,54,16.40
2014,05,02,16,55,16.40
2014,05,02,16,56,16.60
2014,05,02,16,57,16.60
2014,05,02,16,58,16.60
2014,05,02,16,59,16.60
2014,05,02,17,00,16.60
2014,05,02,17,01,16.60
2014,05,02,17,02,16.60
2014,05,02,17,03,16.40
2014,05,02,17,04,16.40
2014,05,02,17,05,16.40
2014,05,02,17,06,16.40
2014,05,02,17,07,16.40
2014,05,02,17,08,16.40
2014,05,02,17,09,16.40
2014,05,02,17,10,16.40
2014,05,02,17,11,16.40
2014,05,02,17,12,16.30
2014,05,02,17,13,16.30
2014,05,02,17,14,16.30
2014,05,02,17,15,16.30
2014,05,02,17,16,16.30
2014,05,02,17,17,16.20
2014,05,02,17,18,16.20
2014,05,02,17,19,16.20
2014,05,02,17,20,16.10